Showing default

MICROSCOPE, 41457

Orbit data source: Space-Track

MICROSCOPE, 41457 is a payload satellite owned by CNES (FR) in SSO that was launched on Mon, 25 Apr 2016 UTC via a SOYUZ-ST-A launch vehicle from the French Guiana (FRGUI). Payloads include a variety of satellites, spacecraft, and rockets equipped with specific instruments for various scientific and technological missions. These include communications satellites like Starlink; space stations such as the ISS; scientific satellites like the Hubble; Earth observation satellites from companies like Planet Labs, Umbra, and HawkEye 360; GPS; miniature CubeSats for education and research; and military/defense satellites.

Loading next visibility...
MICROSCOPE details
Identifier
41457, 2016-025B
Orbit
SSO
Last TLE update7 hours ago
Origin
Flag of FRCNES (FR)
ManufacturerONERA/CNES
MissionNon-operational Civil Science
Bus & MotorMYRIADE, Unknown motor
Mass303 kg wet, 303 kg dry
Launch date (UTC)
2016-04-25 (9 years ago)
Launch vehicle
SOYUZ-ST-A
Launch site
French Guiana (FRGUI)
Object type
Payload
Rocket body
Debris
Shape & HBRBox + 2 Pan, 1.3 m
Radar Cross Section2.015 m², Large (>1 m²)

Expand to show TLE details & history

TLE from 7 hours ago
0 MICROSCOPE
1 41457U 16025B   24361.12414165  .00002764  00000-0  61288-3 0  9992
2 41457  98.2551   6.2777 0001792  81.8953 278.2449 14.57903441460278
Epoch: 2024-12-26T02:58Z
Definitive object data (Epoch: 2024-12-26T02:58:45.838Z)
Latitude-0.00003°
Longitude-133.52133°
Altitude702.751 km
Speed7.505 km/s
True Right ascension00h 25m 06s
True Declination0° 00' 00"
Sunlit
Object was in daylight at TLE epoch
Visualization TLE readout
Latitude43.62952°
Longitude54.68345°
Altitude705.723 km
Speed7.508 km/s
Apparent Right ascension17h 04m 00s
Apparent Declination10° 20' 36"
Sunlit
Object is in daylight
Visualization observer readout
Local Sidereal Time09:32:29
Azimuth67.087° ENE
Elevation-10.261°
Doppler factor1
Orbital elements
Apogee altitude698.306 km
Perigee altitude695.77 km
Semi-major axis7,075.175 km
Eccentricity0.0001792
Inclination98.2551°
RAAN6.2777°
Arg. of periapsis81.8953°
True anomaly278.22458°
Mean anomaly278.2449°
Eccentric anomaly278.23474°
Mean motion3.64701 °/min
BSTAR0.00061288
Orbital period98.71 mins
Loading maneuver chart data...
Loading historical data...
Loading historical data...
Loading historical data...
Loading historical data...
Loading historical data...
Loading historical data...
Loading historical data...

MICROSCOPE Visibility forecast

Observer location: undefined°, undefined

Span
Click to sort rows by Start time (UTC) header in descending order
Start Az.
Max El. time (UTC)
Max El. Az.
Max El.
End time (UTC)
End Az.
9 mins2024-12-26 13:25:20.905Z14.178° NNE2024-12-26 13:30:20.905Z166.033° S44.364°2024-12-26 13:34:20.905Z191.912° SSW
8 mins2024-12-27 00:31:20.905Z163.015° S2024-12-27 00:34:20.905Z141.377° SSE44.336°2024-12-27 00:39:20.905Z348.333° N
|